Wenatchee, WA

7:44 PM PDT on April 25, 2017 (GMT -0700)
Pangborn Memorial

Weather History for KEAT - July, 2013

Change the Weather History Date:

Saturday, July 20, 2013

  Actual Average Record
Temperature  
Mean Temperature 73 °F 68 °F  
Max Temperature 93 °F 84 °F 105 °F (1979)
Min Temperature 53 °F 52 °F 42 °F (2016)
Degree Days  
Heating Degree Days 0 1  
Month to date heating degree days 11 43  
Since 1 June heating degree days 204 230  
Since 1 July heating degree days 11 43  
Cooling Degree Days 8 4  
Month to date cooling degree days 84 57  
Year to date cooling degree days 107 81  
Since 1 June cooling degree days 103 76  
Growing Degree Days 34 (Base 50)    
Moisture  
Dew Point 38 °F    
Average Humidity 25    
Maximum Humidity 46    
Minimum Humidity 7    
Precipitation  
Precipitation 0.00 in 0.01 in 0.39 in (1965)
Month to date precipitation T 0.43  
Year to date precipitation 7.75 9.81  
Snow  
Snow 0.00 in 0.00 in - ()
Month to date snowfall 0.0 0.0  
Since 1 June snowfall 0.0 0.0  
Since 1 July snowfall 0.0 0.0  
Snow Depth 0.00 in    
Sea Level Pressure  
Sea Level Pressure 29.83 in    
Wind  
Wind Speed 11 mph (WNW)    
Max Wind Speed 23 mph    
Max Gust Speed 25 mph    
Visibility 10 miles    
Events      
T = Trace of Precipitation, MM = Missing Value Source: NWS Daily Summary

Daily Weather History Graph

Daily Weather History Graph

Search for Another Location

Airport or City:

Trip Planner

Search our weather history database for the weather conditions in past years. The results will help you decide how hot, cold, wet, or windy it might be!

Date:

Astronomy

Jul. 20, 2013 Rise Set
Actual Time 5:25 AM PDT 8:48 PM PDT
Civil Twilight 4:47 AM PDT 9:26 PM PDT
Nautical Twilight 3:57 AM PDT 10:15 PM PDT
Astronomical Twilight 2:52 AM PDT 11:19 PM PDT
Moon 6:55 PM PDT (7/20) 3:10 AM PDT (7/20)
Length of Visible Light 16h 38m
Length of Day
15h 23m
Waxing Gibbous, 94% of the Moon is Illuminated
Jul 20
Waxing Gibbous
Jul 22
Full
Jul 29
Last Quarter
Aug 6
New
Aug 14
First Quarter

Hourly Weather History & Observations

Time (PDT) Temp. Dew Point Humidity Pressure Visibility Wind Dir Wind Speed Gust Speed Precip Events Conditions
12:55 AM 78.1 °F 48.0 °F 35% 29.90 in 10.0 mi WNW 16.1 mph 20.7 mph N/A   Clear
1:55 AM 73.0 °F 48.9 °F 42% 29.90 in 10.0 mi WNW 11.5 mph - N/A   Clear
2:55 AM 73.0 °F 48.0 °F 41% 29.89 in 10.0 mi WNW 11.5 mph - N/A   Clear
3:55 AM 70.0 °F 48.0 °F 46% 29.89 in 10.0 mi West 6.9 mph - N/A   Clear
4:55 AM 71.1 °F 46.9 °F 42% 29.89 in 10.0 mi WNW 9.2 mph - N/A   Clear
5:55 AM 70.0 °F 46.0 °F 42% 29.90 in 10.0 mi NW 10.4 mph - N/A   Clear
6:55 AM 71.1 °F 46.0 °F 41% 29.91 in 10.0 mi NW 5.8 mph - N/A   Clear
7:55 AM 73.9 °F 44.1 °F 34% 29.91 in 10.0 mi NW 6.9 mph - N/A   Clear
8:55 AM 75.9 °F 45.0 °F 33% 29.90 in 10.0 mi Variable 3.5 mph - N/A   Clear
9:55 AM 79.0 °F 45.0 °F 30% 29.89 in 10.0 mi SW 3.5 mph - N/A   Clear
10:55 AM 84.0 °F 39.9 °F 21% 29.87 in 10.0 mi Variable 4.6 mph - N/A   Clear
11:55 AM 90.0 °F 33.1 °F 13% 29.85 in 10.0 mi West 12.7 mph 17.3 mph N/A   Clear
12:55 PM 91.0 °F 28.0 °F 10% 29.83 in 10.0 mi Calm Calm - N/A   Clear
1:55 PM 93.0 °F 27.0 °F 9% 29.81 in 10.0 mi Calm Calm - N/A   Clear
2:55 PM 96.1 °F 28.9 °F 9% 29.78 in 10.0 mi Calm Calm - N/A   Clear
3:55 PM 97.0 °F 27.0 °F 8% 29.76 in 10.0 mi Variable 6.9 mph - N/A   Clear
4:55 PM 98.1 °F 25.0 °F 7% 29.74 in 10.0 mi WNW 19.6 mph 25.3 mph N/A   Clear
5:55 PM 96.1 °F 27.0 °F 9% 29.74 in 10.0 mi NW 23.0 mph - N/A   Clear
6:55 PM 91.9 °F 28.9 °F 11% 29.75 in 10.0 mi NW 20.7 mph - N/A   Clear
7:55 PM 88.0 °F 30.0 °F 12% 29.76 in 10.0 mi WNW 17.3 mph - N/A   Clear
8:55 PM 84.0 °F 33.1 °F 16% 29.78 in 10.0 mi WNW 12.7 mph - N/A   Clear
9:55 PM 81.0 °F 39.0 °F 22% 29.78 in 10.0 mi WNW 19.6 mph - N/A   Clear
10:55 PM 78.1 °F 42.1 °F 28% 29.75 in 10.0 mi WNW 20.7 mph - N/A   Clear
11:55 PM 75.9 °F 44.1 °F 32% 29.76 in 10.0 mi WNW 18.4 mph - N/A   Clear